• In Belarus
  • List of Countries
  • For 7 days
  • Water Temperature
  • Weather Map
  • Weather Widgets
  • user-avatar
    Login

    Hourly Weather Chiquimula

    Today, 29 January, Wednesday

    Time Temperature Precipitation Wind Pressure Humidity
    00:00 +20°C° 0 mm 0 mps 707 mmHg 93%
    01:00 +21°C° 0 mm 1 mps 707 mmHg 94%
    02:00 +21°C° 0 mm 1 mps 707 mmHg 95%
    03:00 +21°C° 0 mm 1 mps 707 mmHg 96%
    04:00 +21°C° 0 mm 1 mps 707 mmHg 96%
    05:00 +19°C° 0 mm 0 mps 707 mmHg 95%
    06:00 +20°C° 0 mm 1 mps 707 mmHg 96%
    07:00 +21°C° 0 mm 0 mps 708 mmHg 85%
    08:00 +24°C° 0 mm 0 mps 709 mmHg 75%
    09:00 +26°C° 0 mm 0 mps 709 mmHg 64%
    10:00 +28°C° 0 mm 0 mps 709 mmHg 56%
    11:00 +33°C° 0 mm 1 mps 709 mmHg 48%
    12:00 +35°C° 0 mm 1 mps 709 mmHg 40%
    13:00 +34°C° 0 mm 1 mps 708 mmHg 39%
    14:00 +34°C° 0 mm 1 mps 707 mmHg 39%
    15:00 +35°C° 0 mm 2 mps 706 mmHg 38%
    16:00 +31°C° 0.1 mm 2 mps 706 mmHg 49%
    17:00 +29°C° 0.1 mm 1 mps 706 mmHg 60%
    18:00 +26°C° 0.1 mm 1 mps 706 mmHg 72%
    19:00 +25°C° 0 mm 1 mps 707 mmHg 77%
    20:00 +24°C° 0 mm 1 mps 707 mmHg 82%
    21:00 +21°C° 0 mm 0 mps 708 mmHg 87%
    22:00 +21°C° 0.1 mm 0 mps 708 mmHg 89%
    23:00 +20°C° 0.1 mm 0 mps 708 mmHg 90%

    Tomorrow, 30 January, Thursday

    Time Temperature Precipitation Wind Pressure Humidity
    00:00 +20°C° 0.1 mm 0 mps 708 mmHg 91%
    01:00 +20°C° 0.1 mm 0 mps 708 mmHg 93%
    02:00 +22°C° 0.1 mm 1 mps 707 mmHg 94%
    03:00 +21°C° 0.1 mm 1 mps 707 mmHg 96%
    04:00 +21°C° 0 mm 1 mps 707 mmHg 97%
    05:00 +21°C° 0 mm 1 mps 707 mmHg 97%
    06:00 +19°C° 0 mm 0 mps 707 mmHg 98%
    07:00 +23°C° 0 mm 1 mps 708 mmHg 90%
    08:00 +25°C° 0 mm 1 mps 709 mmHg 82%
    09:00 +26°C° 0 mm 1 mps 709 mmHg 75%
    10:00 +28°C° 0.1 mm 1 mps 709 mmHg 67%
    11:00 +30°C° 0.1 mm 1 mps 709 mmHg 60%
    12:00 +32°C° 0.1 mm 1 mps 709 mmHg 52%
    13:00 +32°C° 0 mm 1 mps 708 mmHg 51%
    14:00 +32°C° 0 mm 1 mps 707 mmHg 49%
    15:00 +33°C° 0 mm 1 mps 707 mmHg 48%
    16:00 +30°C° 0.1 mm 1 mps 707 mmHg 57%
    17:00 +28°C° 0.1 mm 1 mps 706 mmHg 66%
    18:00 +26°C° 0.1 mm 1 mps 706 mmHg 75%
    19:00 +25°C° 0.1 mm 1 mps 707 mmHg 80%
    20:00 +24°C° 0.1 mm 1 mps 707 mmHg 85%
    21:00 +21°C° 0.1 mm 0 mps 708 mmHg 90%
    22:00 +21°C° 0 mm 0 mps 707 mmHg 92%
    23:00 +20°C° 0 mm 0 mps 707 mmHg 93%

    Day after tomorrow, 31 January, Friday

    Time Temperature Precipitation Wind Pressure Humidity
    00:00 +20°C° 0 mm 0 mps 707 mmHg 94%
    01:00 +20°C° 0 mm 0 mps 707 mmHg 95%
    02:00 +21°C° 0 mm 1 mps 707 mmHg 95%
    03:00 +21°C° 0 mm 1 mps 706 mmHg 95%
    04:00 +21°C° 0 mm 1 mps 707 mmHg 96%
    05:00 +21°C° 0 mm 1 mps 707 mmHg 96%
    06:00 +21°C° 0 mm 1 mps 707 mmHg 96%
    07:00 +23°C° 0 mm 1 mps 708 mmHg 86%
    08:00 +26°C° 0 mm 1 mps 709 mmHg 76%
    09:00 +28°C° 0 mm 1 mps 709 mmHg 67%
    10:00 +30°C° 0 mm 1 mps 709 mmHg 58%
    11:00 +33°C° 0 mm 1 mps 709 mmHg 49%
    12:00 +35°C° 0 mm 1 mps 709 mmHg 40%
    13:00 +35°C° 0 mm 1 mps 708 mmHg 38%
    14:00 +35°C° 0 mm 1 mps 707 mmHg 36%
    15:00 +35°C° 0 mm 1 mps 707 mmHg 33%
    16:00 +33°C° 0.1 mm 1 mps 707 mmHg 41%
    17:00 +30°C° 0.1 mm 1 mps 707 mmHg 48%
    18:00 +28°C° 0.1 mm 1 mps 707 mmHg 55%
    19:00 +26°C° 0.3 mm 1 mps 707 mmHg 63%
    20:00 +25°C° 0.3 mm 1 mps 708 mmHg 70%
    21:00 +21°C° 0.3 mm 0 mps 708 mmHg 77%
    22:00 +21°C° 0.2 mm 0 mps 708 mmHg 80%
    23:00 +21°C° 0.2 mm 0 mps 708 mmHg 83%

    1 February, Saturday

    Time Temperature Precipitation Wind Pressure Humidity
    00:00 +20°C° 0.2 mm 0 mps 708 mmHg 86%
    01:00 +22°C° 0 mm 1 mps 708 mmHg 89%
    02:00 +22°C° 0 mm 1 mps 708 mmHg 92%
    03:00 +21°C° 0 mm 1 mps 708 mmHg 95%
    04:00 +22°C° 0 mm 1 mps 708 mmHg 96%
    05:00 +22°C° 0 mm 1 mps 708 mmHg 96%
    06:00 +22°C° 0 mm 1 mps 709 mmHg 96%
    07:00 +23°C° 0.1 mm 1 mps 709 mmHg 91%
    08:00 +24°C° 0.1 mm 1 mps 710 mmHg 86%
    09:00 +25°C° 0.1 mm 2 mps 711 mmHg 81%
    10:00 +27°C° 0.1 mm 2 mps 711 mmHg 74%
    11:00 +28°C° 0.1 mm 2 mps 711 mmHg 66%
    12:00 +30°C° 0.1 mm 2 mps 711 mmHg 58%
    13:00 +30°C° 0.1 mm 3 mps 710 mmHg 57%
    14:00 +30°C° 0.1 mm 3 mps 709 mmHg 57%
    15:00 +30°C° 0.1 mm 3 mps 709 mmHg 56%
    16:00 +28°C° 0 mm 3 mps 709 mmHg 64%
    17:00 +26°C° 0 mm 2 mps 709 mmHg 71%
    18:00 +25°C° 0 mm 2 mps 709 mmHg 79%
    19:00 +24°C° 0 mm 2 mps 709 mmHg 84%
    20:00 +23°C° 0 mm 2 mps 710 mmHg 89%
    21:00 +21°C° 0 mm 2 mps 711 mmHg 94%
    22:00 +20°C° 0 mm 2 mps 710 mmHg 94%
    23:00 +20°C° 0 mm 2 mps 710 mmHg 95%

    2 February, Sunday

    Time Temperature Precipitation Wind Pressure Humidity
    00:00 +20°C° 0 mm 2 mps 710 mmHg 96%
    01:00 +20°C° 0.5 mm 2 mps 710 mmHg 96%
    02:00 +20°C° 0.5 mm 2 mps 710 mmHg 95%
    03:00 +20°C° 0.5 mm 3 mps 710 mmHg 95%
    04:00 +20°C° 0.2 mm 3 mps 710 mmHg 94%
    05:00 +19°C° 0.2 mm 3 mps 710 mmHg 94%
    06:00 +19°C° 0.2 mm 3 mps 710 mmHg 93%
    07:00 +19°C° 0.1 mm 3 mps 711 mmHg 92%
    08:00 +19°C° 0.1 mm 3 mps 711 mmHg 91%
    09:00 +19°C° 0.1 mm 3 mps 712 mmHg 89%
    10:00 +20°C° 0 mm 3 mps 712 mmHg 81%
    11:00 +22°C° 0 mm 3 mps 711 mmHg 72%
    12:00 +24°C° 0 mm 3 mps 711 mmHg 64%
    13:00 +25°C° 0 mm 3 mps 710 mmHg 62%
    14:00 +25°C° 0 mm 3 mps 710 mmHg 60%
    15:00 +25°C° 0 mm 3 mps 709 mmHg 58%
    16:00 +24°C° 0 mm 3 mps 709 mmHg 64%
    17:00 +21°C° 0 mm 3 mps 709 mmHg 70%
    18:00 +19°C° 0 mm 2 mps 709 mmHg 75%
    19:00 +19°C° 0 mm 2 mps 710 mmHg 79%
    20:00 +18°C° 0 mm 2 mps 710 mmHg 83%
    21:00 +18°C° 0 mm 1 mps 710 mmHg 88%
    22:00 +16°C° 0 mm 1 mps 710 mmHg 89%
    23:00 +16°C° 0 mm 1 mps 710 mmHg 90%

    3 February, Monday

    Time Temperature Precipitation Wind Pressure Humidity
    00:00 +15°C° 0 mm 1 mps 710 mmHg 92%
    01:00 +15°C° 0 mm 1 mps 709 mmHg 93%
    02:00 +15°C° 0 mm 1 mps 709 mmHg 94%
    03:00 +15°C° 0 mm 1 mps 708 mmHg 94%
    04:00 +14°C° 0 mm 1 mps 708 mmHg 95%
    05:00 +14°C° 0 mm 1 mps 708 mmHg 95%
    06:00 +14°C° 0 mm 1 mps 709 mmHg 96%
    07:00 +18°C° 0 mm 1 mps 709 mmHg 85%
    08:00 +20°C° 0 mm 1 mps 710 mmHg 75%
    09:00 +23°C° 0 mm 1 mps 711 mmHg 65%
    10:00 +25°C° 0 mm 1 mps 710 mmHg 58%
    11:00 +27°C° 0 mm 1 mps 710 mmHg 52%
    12:00 +30°C° 0 mm 1 mps 710 mmHg 45%
    13:00 +30°C° 0 mm 1 mps 709 mmHg 44%
    14:00 +31°C° 0 mm 1 mps 708 mmHg 43%
    15:00 +31°C° 0 mm 1 mps 708 mmHg 42%
    16:00 +29°C° 0 mm 1 mps 708 mmHg 52%
    17:00 +26°C° 0 mm 1 mps 708 mmHg 62%
    18:00 +24°C° 0 mm 1 mps 707 mmHg 72%
    19:00 +23°C° 0 mm 1 mps 708 mmHg 79%
    20:00 +21°C° 0 mm 1 mps 708 mmHg 86%
    21:00 +20°C° 0 mm 1 mps 709 mmHg 93%
    22:00 +19°C° 0 mm 1 mps 709 mmHg 94%
    23:00 +17°C° 0 mm 0 mps 709 mmHg 95%
    Show more